Regional Weather Roundup
Issued by NWS

Home | Current Version | Previous Version | Graphics & Text | Print | Product List | Glossary On
Versions: 1 2 3 4 5 6 7 8 9 10 11 12 13 14 15 16 17 18 19 20 21 22 23 24 25 26 27 28 29 30 31 32 33 34 35 36 37 38 39 40 41 42 43 44 45 46 47 48 49 50
000
ASUS44 KMEG 271300
RWRTN
TENNESSEE HOURLY STATE WEATHER ROUNDUP
NATIONAL WEATHER SERVICE MEMPHIS TN
700 AM CST TUE JAN 27 2015

TNZ002-004-019-021-049-052-054-088>092-271400-
WEST TENNESSEE

CITY           SKY/WX    TMP DP  RH WIND       PRES   REMARKS
MEMPHIS INTL   CLEAR     41  33  73 NW5       30.05R
NWS MEMPHIS      N/A     38 N/A N/A MISG        N/A
JACKSON        CLEAR     34  30  85 NW6       30.02R WCI  29
DYERSBURG      CLEAR     36  21  55 N3        30.06R
UNION CITY     CLEAR     32  32 100 N8        30.02R WCI  25
PARIS          CLEAR     30  28  93 NW3       30.01R
LEXINGTON      CLEAR     34  30  86 NW7       29.98R WCI  28
SAVANNAH       CLOUDY    28  27  93 CALM      30.01R
$$

TNZ008-025-027-028-033-062-065-066-271400-
NORTH MIDDLE TENNESSEE

CITY           SKY/WX    TMP DP  RH WIND       PRES   REMARKS
NASHVILLE      PTCLDY    34  30  85 NW6       29.96R WCI  29
CLARKSVILLE    PTCLDY    33  30  88 NW7       29.99R WCI  27
COOKEVILLE     CLOUDY    32  32 100 CALM      29.92R
CROSSVILLE     CLOUDY    31  29  92 NW6       29.89R FOG     WCI  25
$$

TNZ061-075-076-078-094-096-097-271400-
SOUTH MIDDLE TENNESSEE

CITY           SKY/WX    TMP DP  RH WIND       PRES   REMARKS
TULLAHOMA      CLEAR     30  28  93 NW6       29.93R WCI  24
WINCHESTER     MOCLDY    34  30  86 CALM      29.94R
SHELBYVILLE    PTCLDY    30  30 100 CALM      29.96R
$$

TNZ017-018-042-046-047-271400-
NORTHEAST TENNESSEE

CITY           SKY/WX    TMP DP  RH WIND       PRES   REMARKS
TRI CITIES     CLOUDY    29  23  78 NW3       29.89R
$$

TNZ012-013-036-069-073-074-271400-
CENTRAL EAST TENNESSEE

CITY           SKY/WX    TMP DP  RH WIND       PRES   REMARKS
KNOXVILLE      LGT SNOW  31  29  92 SW5       29.92R FOG     WCI  26
OAK RIDGE      CLOUDY    33  31  92 CALM      29.94R FOG
$$

TNZ083-085-099-271400-
SOUTHEAST TENNESSEE

CITY           SKY/WX    TMP DP  RH WIND       PRES   REMARKS
CHATTANOOGA    CLOUDY    36  31  82 CALM      29.93R
$$

SKY/WX REPORTED AS FAIR MEANS FEW OR NO CLOUDS BELOW
12 THOUSAND FEET.




USA.gov is the U.S. government's official web portal to all federal, state and local government web resources and services.